OBJECT W, 57186

Orbit data source: Space-Track

You're viewing an Uncataloged Satellite

Recently launched and/or uncataloged satellites may have evolving metadata. Metadata may include but not limited to: Owner, Maufacturer, Bus, Motor, and Mission.

OBJECT W, 57186 is a satellite in SSO that was launched on Tue, 27 Jun 2023 UTC via a SOYUZ-2-1B launch vehicle from the Vostochny Cosmodrome (VOSTO). Unknown objects in Earth's orbit typically refer to objects detected orbiting the Earth but have not yet been identified or cataloged. These objects could be anything from previously untracked satellites, spent rocket stages, debris from satellite collisions, or even natural meteoroids temporarily captured by Earth's gravity.

Loading next visibility...
Identifier
57186, 2023-091W
Orbit
SSO
Country
Flag of TBDTBD
Related business
Flag of RUOOO Special Technological Center (RU)
Manufacturer
STTS/SPBPU
Mission
Operational Commercial Technology
Bus & Motor
CUBESAT 3U, Unknown motor
Mass
3 kg wet, 3 kg dry
Launch date (UTC)
2023-06-27 (3 years ago)
Launch vehicle
SOYUZ-2-1B
Launch site
Vostochny Cosmodrome (VOSTO)
Object type
Unknown
Shape & HBR
Box, 0.2 m
Radar Cross Section
0.035 m², Medium (>0.1 m² and < 1m²)

Expand to show TLE details & history
Last TLE update: 15 hours ago

TLE from 15 hours ago
0 OBJECT W
1 57186U 23091W   26206.58586998  .00007957  00000-0  28010-3 0  9998
2 57186  97.5133 273.2352 0016500 321.1479  38.8573 15.29471072170325
Epoch: 2026-07-25T14:03Z
TLE epoch observation values (Epoch: 2026-07-25T14:03:39.166Z)
Latitude
-0.00008°
Longitude
119.02599°
Altitude
471.689 km
Speed
7.635 km/s
True Right ascension
18h 12m 56s
True Declination
0° 00' 00"
Sunlit
Object was in full shadow at epoch
Visualization orbit readout
Latitude
Unknown
Longitude
Unknown
Altitude
Unknown
Speed
Unknown
Apparent Right ascension
Unknown
Apparent Declination
Unknown
Sunlit
N/A
Visualization observer readout
Local Sidereal Time
18:03:58
Azimuth
Unknown
Elevation
Unknown
Doppler factor
Unknown
Orbital elements
Apogee altitude
485.657 km
Perigee altitude
463.044 km
Semi-major axis
6,852.487 km
Eccentricity
0.00165
Inclination
97.5133°
RAAN
273.2352°
Arg. of periapsis
321.1479°
True anomaly
38.97611°
Mean anomaly
38.8573°
Eccentric anomaly
38.91669°
Mean motion
3.82623 °/min
Orbital period
94.09 mins
BSTAR
0.0002801
Loading maneuver chart data...
Computing Atmospheric mass density...
Loading historical data...
Loading historical data...
Loading historical data...
Loading historical data...
Loading historical data...
Loading historical data...
Loading historical data...

Documentation

Showing up to 5 results
|